Location: Oshawa
(43.9000°N, 78.8670°W)
Time: 14:08:29
(UTC-04:00)

PAYLOAD A - Visible Passes

Search period start: 22 April 2018 00:00
Search period end: 02 May 2018 00:00
Orbit: 693 x 831 km, 98.2° (Epoch: 21 April)

Date Brightness Start Highest point End Pass type
(mag) Time Alt. Az. Time Alt. Az. Time Alt. Az.
23 Apr 6.1 05:35:23 10° NNE 05:40:07 31° E 05:44:41 10° SSE visible
24 Apr 6.9 04:59:14 10° NE 05:02:02 14° E 05:04:46 10° ESE visible
26 Apr 6.5 05:21:46 10° NE 05:25:57 23° E 05:30:01 10° SE visible
27 Apr 7.4 04:47:28 10° E 04:47:47 10° E 04:48:05 10° E visible
29 Apr 6.7 05:08:20 10° NE 05:11:46 17° E 05:15:05 10° SE visible
01 May 6.2 05:31:11 10° NE 05:35:39 28° E 05:39:57 10° SSE visible
